Regional Weather Roundup
Issued by NWS Grand Forks, ND

Home | Current Version | Previous Version | Text Only | Print | Product List | Glossary On
Versions: 1 2 3 4 5 6 7 8 9 10 11 12 13 14 15 16 17 18 19 20 21 22 23 24 25 26 27 28 29 30 31 32 33 34 35 36 37 38 39 40 41 42 43 44 45 46 47 48 49 50
000
ASUS43 KFGF 230531
RWRFGF
PRAIRIE TO PINES  WEATHER ROUNDUP
NATIONAL WEATHER SERVICE EASTERN NORTH DAKOTA/GRAND FORKS ND
1200 AM CDT WED AUG 23 2017

 **SATELLITE DATA USED TO AUGMENT SKY COVER AT AUTOMATED STATIONS**
 *****  WEATHER ACROSS EASTERN NORTH DAKOTA  *****

CITY           SKY/WX    TMP DP  RH WIND       PRES   REMARKS
GRAND FORKS    FAIR      51  48  89 W7        30.08S
GRAND FRKS AFB FAIR      48  45  87 NW5       30.09S
DEVILS LAKE    FAIR      53  46  77 CALM      30.11S
FARGO          FAIR      53  47  79 CALM      30.08S
WAHPETON ARPT  FAIR      52  46  82 SW5       30.11R
$$

 ***** WEATHER ACROSS CENTRAL AND WESTERN NORTH DAKOTA  *****

CITY           SKY/WX    TMP DP  RH WIND       PRES   REMARKS
BISMARCK       FAIR      52  49  89 E3        30.13R
MINOT          FAIR      59  44  57 S6        30.09S
JAMESTOWN      FAIR      50  47  89 CALM      30.12R
MINOT AFB      MOCLDY    55  43  62 S6        30.08S
GARRISON         N/A     57  47  69 E5        30.11S
WILLISTON      FAIR      65  46  50 S5        30.08S
DICKINSON      FAIR      54  42  64 SE8       30.13R
HETTINGER      FAIR      60  43  53 E12       30.15S
$$

 *****  OTHER AIRPORT OBSERVATIONS IN OUR AREA  *****

CITY           SKY/WX    TMP DP  RH WIND       PRES   REMARKS
WALHALLA       FAIR      50  50 100 CALM      30.10S
GRAFTON AIRPOR FAIR      54  52  94 NW3       30.11S
VALLEY CITY AR   N/A     50  50 100 CALM      30.13S
CANDO          FAIR      50  50 100 E3        30.12S
CAVALIER APRT  FAIR      50  48  93 CALM      30.09S
GWINNER        CLEAR     52  50  93 CALM      30.11S
ROLLA          FAIR      46  45  93 CALM      30.11S
 ***** THE ABOVE OBSERVATIONS ARE NON NWS ARE NOT QUALITY
       CONTROLLED AND MAY MIS-REPORT RAIN FOR SNOW...
$$

  *****  WEATHER ACROSS NORTHERN MINNESOTA  *****

CITY           SKY/WX    TMP DP  RH WIND       PRES   REMARKS
FLAG ISLAND    FAIR      59  48  67 N5        30.04S
WARROAD        FAIR      52  46  82 W5        30.07R
ROSEAU         FAIR      54  48  82 NW3       30.07R
HALLOCK        FAIR      50  46  87 CALM      30.08S
THF RVR FALLS  FAIR      54  49  83 CALM      30.09S
BAUDETTE       FAIR      52  50  93 CALM      30.04S
WASKISH        FAIR      55  52  88 NW7       30.06R
CROOKSTON      FAIR      50  45  81 NW3       30.09S
STEPHEN NDAWN    N/A     52  46  82 NW2         N/A
GREENBUSH NDAW   N/A     48  46  93 NW3         N/A
$$
  *****  WEATHER ACROSS CENTRAL AND WEST MINNESOTA  *****

CITY           SKY/WX    TMP DP  RH WIND       PRES   REMARKS
FOSSTON        FAIR      45  41  87 CALM      30.09R
BEMIDJI        FAIR      50  46  87 NW3       30.06S
PARK RAPIDS    FAIR      51  47  86 W6        30.07S
ELBOW LAKE     FAIR      55  49  81 NW5       30.11S
WADENA         FAIR      54  46  76 W3        30.08S
DETROIT LAKES  FAIR      55  46  71 CALM      30.11R
MOORHEAD       FAIR      54  46  76 CALM      30.10R
FERGUS FALLS   FAIR      54  48  82 CALM      30.10S
MORRIS MN      FAIR      54  48  82 CALM      30.10S
STAPLES        FAIR      50  45  81 W3        30.08R
$$
  *****  WEATHER ELSEWHERE ACROSS MINNESOTA  *****

CITY           SKY/WX    TMP DP  RH WIND       PRES   REMARKS
DULUTH         FAIR      54  52  93 NW8       30.00S
INTRNTL FALLS  FAIR      50  47  89 W5        30.02S
ELY            FAIR      52  52 100 NW3       29.99S
CLOQUET        FAIR      54  48  82 W6        30.02R
WHEATON        FAIR      57  48  72 SW3       30.12S
BRAINERD       FAIR      59  48  67 NW3       30.06R
HIBBING        FAIR      50  48  93 NW6       30.02R
ALEXANDRIA     FAIR      57  50  77 W5        30.11S
SAINT CLOUD    FAIR      58  50  75 NW8       30.06S
MINNEAPOLIS    FAIR      62  48  60 W9        30.05R
$$

  *****  WEATHER ACROSS SOUTH DAKOTA  *****

CITY           SKY/WX    TMP DP  RH WIND       PRES   REMARKS
SIOUX FALLS    FAIR      58  54  86 CALM      30.16R
BROOKINGS      FAIR      56  51  84 CALM      30.16R
WATERTOWN      FAIR      53  48  83 CALM      30.14S
HURON          FAIR      58  55  90 E3        30.14R
SISSETON         N/A     55  48  77 CALM      30.10F
ABERDEEN       FAIR      53  50  89 CALM      30.13S
MITCHELL       FAIR      58  51  78 S3        30.15S
PIERRE         FAIR      60  50  69 E7        30.12R
MOBRIDGE       FAIR      62  48  60 E9        30.12R
RAPID CITY     FAIR      62  45  53 E6        30.10S
$$

  *****  SOME WEATHER IN NEARBY STATES *****

CITY           SKY/WX    TMP DP  RH WIND       PRES   REMARKS
GLASGOW MT     FAIR      68  36  30 E14       30.03S
GREAT FALLS MT FAIR      69  31  24 E6        30.04S
CHEYENNE WY    FAIR      61  53  75 NW7       30.26R
SCOTTSBLUFF NE FAIR      65  53  65 E13       30.16S
OMAHA NE       FAIR      61  55  81 NE3       30.17R
DES MOINES IA  FAIR      61  55  81 W3        30.12S
DAVENPORT IA   FAIR      56  53  90 W5        30.09S
CHICAGO IL     FAIR      66  50  56 W9        30.01R
EAU CLAIRE WI  FAIR      58  50  75 W5        30.00S
LA CROSSE WI   NOT AVBL
$$

  *****  SOME NATIONAL WEATHER *****

CITY           SKY/WX    TMP DP  RH WIND       PRES   REMARKS
LA GUARDIA NY  LGT RAIN  74  71  91 S9        29.76F
RALEIGH NC     FAIR      80  72  76 SW12      29.94F
ATLANTA GA     FAIR      77  73  87 W7        30.03S
NEW ORLEANS LA FAIR      79  78  97 NW3       29.99S
OKLAHOMA CITY  CLOUDY    71  70  96 NE9       30.08F
ALBUQUERQUE NM FAIR      71  58  63 E25G37    30.28R
SALT LAKE CITY MOCLDY    75  53  46 S14       30.18F
LOS ANGELES CA FAIR      68  63  84 W10       29.97S
BOISE ID       FAIR      75  47  36 SE5       29.98S
SEATTLE WA     FAIR      67  59  75 SW9       30.02R
$$

*** WEATHER ACROSS MANITOBA...SASKATCHEWAN AND ONTARIO ***
                ***ONTARIO***

CITY           SKY/WX    TMP DP  RH WIND       PRES   REMARKS
GERALDTON      CLOUDY    50  48  93 NW13G23   29.80R
THUNDER BAY    PTCLDY    54  50  87 W7        29.89R
SIOUX LOOKOUT  CLOUDY    52  46  82 N6        30.00R
TORONTO        CLEAR     59  54  82 W9        29.78R
BIG TROUT LK   CLEAR     45  36  70 N5        29.99R
PICKLE LAKE    NOT AVBL
DRYDEN         CLOUDY    54  50  87 N7        30.01R
KENORA         CLOUDY    55  50  82 NW7       30.04R
$$
                *** MANITOBA***

CITY           SKY/WX    TMP DP  RH WIND       PRES   REMARKS
BRANDON        MOCLDY    59  46  63 SE7       30.08S
DAUPHIN        CLOUDY    57  52  82 S6        30.05F
ISLAND LAKE    CLEAR     50  45  81 N6        30.09R
PILOT MOUND      N/A     50  45  81 SE6         N/A
THE PAS        CLOUDY    61  54  77 S3        30.04R
THOMPSON       PTCLDY    39  37  93 CALM      30.10R
WINNIPEG       CLEAR     48  46  93 W5        30.08S
LYNN LAKE      CLEAR     52  46  82 SE5       30.08R
CHURCHILL      CLEAR     45  39  81 W8        30.09R
GILLAM         PTCLDY    52  41  66 NE6       30.10R
$$
                ***SASKATCHEWAN***

CITY           SKY/WX    TMP DP  RH WIND       PRES   REMARKS
ESTEVAN        CLEAR     59  43  55 SE8       30.07S
KINDERSLEY     PTCLDY    57  50  77 NE14      29.99S
LLOYDMINSTER   PTCLDY    59  55  88 E3        30.01S
PRINCE ALBERT  PTCLDY    55  50  82 E3        30.01S
REGINA         MOCLDY    63  41  45 SE12      30.03S
YORKTON        CLOUDY    63  46  55 S6        30.04S
N. BATTLEFORD  CLEAR     57  52  82 SE5       30.02R
LA RONGE       MOCLDY    61  50  67 E10       30.03S
SASKATOON      PTCLDY    59  50  72 CALM      30.01R
SWIFT CURRENT  CLEAR     59  43  55 SE10      30.02F
$$
NOTE: THESE ARE AUTOMATED STATIONS WITH LIMITED QUALITY CONTROL
      "FAIR" INDICATES FEW OR NO CLOUDS BELOW 12,000 FEET WITH NO
      SIGNIFICANT WEATHER AND/OR OBSTRUCTIONS TO VISIBILITY.
      SKY/WX - SKY CONDITION AND SIGNIFICANT WEATHER.
      TMP - AIR TEMPERATURE.    DP   - DEWPOINT TEMPERATURE.
      RH  - RELATIVE HUMIDITY.  PRES - PRESSURE.
      HX  - HEAT INDEX.         WCI  - WIND CHILL INDEX.
$



USA.gov is the U.S. government's official web portal to all federal, state and local government web resources and services.